www.pogodaiklimat.ru

Погода и климат >> Архив погоды >> Россия >> Коми >> Ижма


ПОГОДА в Ижме

  • Прогноз погоды в Ижме
  • Монитор погоды в Ижме

АРХИВ ПОГОДЫ в Ижме

Время (UTC), дата Ветер
(напр.,м/с)
 
Видим.   Явления Облачность Т
(С)
Тd
(С)
f
(%)
Тe
(С)
Тes
(С)
Комфортность P
(гПа)
Po
(гПа)
Тmin
(С)
Tmax
(С)
R
(мм)
R24
(мм)
S
(см)
12 12.06 С 5-11
{13}
20 км в посл. час ливневой дождь 9/6 600 м
[Cb cap Ac trans]
+7.3 +1.0 64 +4 +5 1010.8 1005.9
15 12.06 СЗ 4
{15}
20 км в посл. час ливневой дождь 10/6 600 м
[Cb cap Ac und]
+5.7 +1.9 77 +2 +2 1012.3 1007.4 +9.2 0.4
18 12.06 СЗ 4
{13}
20 км {ливн. осадки} 10/10 840 м
[Sc]
+4.9 -0.3 69 +1 +1 1012.9 1008.0
21 12.06 СЗ 4
{12}
20 км 10/10 1260 м
[Sc]
+3.3 -0.4 77 -1 -1 1013.4 1008.4
00 13.06 СЗ 4
{11}
20 км слаб. дождь 10/6 540 м
[Sc As op]
+2.6 -0.2 82 -2 -2 1013.4 1008.4
03 13.06 СЗ 6-10
{11}
20 км {дождь} 10/10 600 м
[Sc]
+3.3 -0.4 77 -2 -2 1013.5 1008.5 +2.6 0.0
06 13.06 СЗ 6-11
{13}
20 км в посл. час ливневой дождь 10/10 720 м
[Cb cap]
+5.2 -0.2 68 0 0 1013.9 1009.0
09 13.06 СЗ 6-11
{14}
20 км 9/9 800 м
[Cu Sc]
+7.9 -1.0 53 +4 +5 1014.6 1009.7
12 13.06 СЗ 6-13
{16}
20 км 10/5 600 м
[Cu Sc Ci fib]
+9.0 -1.8 47 +6 +7 1014.3 1009.4
15 13.06 СЗ 5-11
{15}
20 км 10/4 600 м
[Sc Cs]
+8.0 -2.0 49 +5 +5 1014.1 1009.2 +9.6 0.0
18 13.06 СЗ 4
{13}
20 км 10/10 1200 м
[Sc]
+6.0 -2.0 56 +3 +3 1013.7 1008.8
21 13.06 С 5-10
{13}
20 км 10/8 930 м
[Sc Ac und]
+3.3 -2.4 66 -2 -2 1013.6 1008.6
00 14.06 СЗ 5-11
{13}
20 км 10/8 900 м
[Sc Ac und]
+2.4 -2.4 71 -3 -3 1013.4 1008.4
03 14.06 С 4
{11}
20 км слаб. ливневой снег 10/6 600 м
[Cb cap Ac und]
+2.0 -0.5 83 -3 -3 1013.3 1008.3 +2.0 0.0
06 14.06 СЗ 3
{11}
20 км {ливн. осадки} 10/10 870 м
[Cb cap]
+5.6 -1.1 62 +3 +3 1012.9 1007.9 +2.0
09 14.06 СЗ 4
{10}
20 км {ливн. осадки} 9/9 960 м
[Cb cap]
+8.2 -0.6 54 +5 +6 1012.3 1007.4
12 14.06 СЗ 4 20 км {ливн. осадки} 6/6 1000 м
[Cb cap]
+10.8 -0.7 45 +9 +11 1011.3 1006.4
15 14.06 СЗ 3 20 км 10/4 1000 м
[Cb cap Ac trans Ci fib]
+10.6 -0.9 45 +9 +10 1009.8 1005.0 +11.7 0.0
18 14.06 З 1 20 км 10/3 1000 м
[Sc Ac trans Ci fib]
+6.6 +1.0 67 +6 +6 1008.2 1003.3
21 14.06 З 2 20 км 10/4 300 м
[Sc As op]
+6.7 +0.3 64 +5 +5 1007.0 1002.1
00 15.06 З 2 20 км {дождь} 10/6 870 м
[Sc As op]
+4.8 +2.8 87 +2 +2 1005.8 1000.9
03 15.06 СЗ 3 20 км 10/5 300 м
[Cb cap Ac trans Ci fib]
+5.5 +1.2 74 +2 +3 1004.9 1000.0 +4.8 0.3
06 15.06 СЗ 4 20 км 10/6 600 м
[Cb cap Ac und]
+6.6 +1.8 71 +3 +4 1004.7 999.8
09 15.06 СЗ 4 20 км {ливн. осадки} 9/9 840 м
[Cb cap]
+8.8 +1.9 62 +6 +7 1004.6 999.8
12 15.06 СЗ 5 20 км в посл. час ливневой дождь 9/6 600 м
[Cb cap Ci fib]
+10.7 +1.0 51 +8 +10 1004.7 999.9
15 15.06 С 4
{12}
20 км {ливн. осадки} 8/5 1000 м
[Cb cap Ac cast]
+9.5 +0.8 55 +7 +7 1005.1 1000.3 +10.7 0.4
18 15.06 С 3 20 км {ливн. осадки} 10/4 1000 м
[Cb cap Ac trans Ci fib]
+5.7 +0.4 69 +3 +3 1005.8 1000.9
21 15.06 З 1 20 км 10/5 600 м
[Sc Ac und]
+3.2 +0.1 80 +2 +2 1005.7 1000.8
00 16.06 З 2 20 км слаб. дождь 10/10 270 м
[Frnb]
+3.2 +1.7 90 0 0 1005.2 1000.3
03 16.06 З 3 20 км слаб. дождь 10/10 300 м
[Frnb]
+5.1 +2.9 86 +2 +2 1004.0 999.1 +2.5 0.6
06 16.06 З 2 20 км {дождь} 10/10 450 м
[Sc]
+6.1 +3.4 83 +4 +4 1003.3 998.4
09 16.06 З 2 20 км слаб. ливневой дождь 10/6 600 м
[Cb cap Ac und]
+9.1 +6.3 83 +7 +9 1001.4 996.6
12 16.06 ЮЗ 3 20 км {ливн. осадки, дождь} 10/8 800 м
[Cb cap Ac trans Cc]
+10.8 +7.1 78 +9 +9 1000.4 995.6
15 16.06 СЗ 3
{10}
20 км {ливн. осадки} 10/8 800 м
[Cb cap Ac und]
+8.7 +5.6 81 +6 +6 1001.1 996.3 +11.0 3
18 16.06 З 1 20 км {ливн. осадки} 8/4 600 м
[Cb cap Ac trans Ci sp]
+7.3 +4.2 81 +6 +6 1001.7 996.9
21 16.06 СЗ 3 20 км 10/0
[Ac As]
+6.1 +2.4 77 +3 +3 1001.5 996.6
00 17.06 СЗ 2 20 км 10/10 1080 м
[Sc]
+5.4 +1.3 75 +3 +3 1001.5 996.7
03 17.06 СЗ 3 20 км 10/5 600 м
[Sc Ac und]
+5.5 +1.0 73 +2 +3 1002.0 997.1 +4.9
06 17.06 СЗ 3 20 км {дождь} 9/5 600 м
[Cb cap Ac trans]
+7.6 +1.0 63 +5 +7 1002.6 997.8
09 17.06 З 3
{11}
20 км {ливн. осадки} 10/3 600 м
[Cb cap Ac und]
+7.9 +1.4 63 +5 +8 1003.6 998.8
12 17.06 СЗ 4
{11}
20 км в посл. час ливневой дождь 10/4 300 м
[Cb cap Ac und]
+7.2 +2.8 74 +4 +5 1004.8 999.9
15 17.06 СЗ 3 20 км 10/5 600 м
[Cb cap Ac lent Ci fib]
+7.4 +1.8 68 +5 +5 1005.3 1000.4 +8.2 0.3
18 17.06 З 2 20 км 10/4 1000 м
[Cb cap Ac und]
+6.3 +2.9 79 +4 +4 1004.8 999.9
21 17.06 З 2 20 км 10/0
[Ac und]
+5.4 +1.9 78 +3 +3 1003.7 998.8
00 18.06 СЗ 3 20 км 10/0
[Ac und]
+5.8 +0.5 69 +3 +3 1003.4 998.5
03 18.06 СЗ 4 20 км в посл. час ливневой дождь 10/6 600 м
[Cb cap Ac und]
+6.4 +1.0 68 +3 +3 1003.4 998.5 +5.2 0.0
06 18.06 З 4
{11}
20 км в посл. час ливневой дождь 10/5 600 м
[Cb cap Ac trans Ci fib]
+7.6 +2.8 72 +4 +6 1003.9 999.0
09 18.06 СЗ 4
{11}
20 км в посл. час ливневой дождь 10/5 600 м
[Cb cap Ac trans Ci fib]
+9.1 +2.1 62 +6 +9 1004.6 999.8
12 18.06 СЗ 4 20 км {ливн. осадки} 10/4 600 м
[Cb cap Ac trans Ci fib]
+11.1 +1.7 52 +9 +11 1005.2 1000.4
15 18.06 С 3 20 км 10/6 600 м
[Cb cap Ac cast Ci fib]
+9.7 +0.6 53 +8 +8 1005.6 1000.7 +11.7 0.8
18 18.06 С 2 20 км 6/6 1000 м
[Sc]
+7.5 +0.4 61 +6 +6 1005.9 1001.0
21 18.06 штиль 0 20 км 9/9 1050 м
[Sc]
+2.8 +0.6 85 +2 +2 1006.2 1001.3
00 19.06 С 1 20 км 10/0
[Ac und]
+4.8 +2.2 83 +4 +4 1006.8 1001.9
03 19.06 С 2 20 км 10/4 600 м
[Cb cap Ac und]
+6.0 -0.1 65 +4 +5 1007.3 1002.4 +1.5
06 19.06 СЗ 4 20 км 10/10 960 м
[Sc]
+5.8 -1.7 59 +2 +2 1008.3 1003.4
09 19.06 СЗ 3 20 км 9/9 1000 м
[Sc]
+7.1 -1.8 53 +5 +6 1009.1 1004.2

 

Местоположение метеостанции Ижма (Коми, Россия): широта 65.00 долгота 53.92 высота над уровнем моря 40 м.

В архиве по умолчанию представлена погода в Ижме за последнюю неделю. Архивные данные за месяц целиком и за предыдущие месяцы, начиная с января 2011 года, Вы можете получить, выбрав интересующий диапазон дат из раскрывающегося списка и нажав кнопку "Ввод!".


*Определитесь, кто Вы:
робот инопланетянин человек

Внимание! Время в таблицах - всемирное. Для получения местного времени необходимо прибавить поправку, которая равна 3 ч.

Смотрите также архив погоды в соседних городах и на ближайших метеорологических станциях:

Погода в Ираеле (Коми, Россия) (88 км)
Погода в Кедва-Воме (Коми, Россия) (88 км)
Погода в Усть-Цильме (Коми, Россия) (91 км)
Погода в Мутном Материке (Коми, Россия) (120 км)
Погода в Печоре (Коми, Россия) (150 км)
Погода в Окуневом Носу (Коми, Россия) (152 км)
Погода в Ухте (Коми, Россия) (161 км)
Погода в Усть-Усе (Коми, Россия) (175 км)
Погода в Усть-Щугоре (Коми, Россия) (194 км)
Погода в Усинске (Коми, Россия) (196 км)

Пояснения к столбцам:

Ветер - указаны скорость ветра в м/с - средняя за 10 мин, порывы в срок и между сроками (в фигурных скобках) и направление, откуда дует ветер: С - северный, СВ - северо-восточный, В - восточный, ЮВ - юго-восточный, Ю - южный, ЮЗ - юго-западный, З - западный, СЗ - северо-западный.
Видимость - горизонтальная дальность видимости в метрах или километрах. При видимости от 1 до 10 км при отсутствии осадков обычно наблюдается дымка, при ухудшении видимости до 1 км и менее - туман. В сухую погоду видимость может ухудшаться дымом, пылью или мглою.
Явления - указаны атмосферные явления, наблюдавшиеся в срок или в последний час перед сроком; фигурными скобками обозначены явления, наблюдавшиеся между сроками (за 1-3 часа до срока); квадратными скобками обозначены град или гололедные отложения с указанием их диаметра в мм.
Облачность - указаны через наклонную черту общая и нижняя облачность в баллах и высота нижней границы облаков в метрах; квадратными скобками обозначены формы облаков: Ci - перистые, Cs - перисто-слоистые, Cc - перисто-кучевые, Ac - высококучевые, As - высокослоистые, Sc - слоисто-кучевые, Ns - слоисто-дождевые, Cu - кучевые, Cb - кучево-дождевые. Подробнее классификацию облаков см. в Атласе облаков (PDF).
T - Температура воздуха - температура, измеренная на высоте 2 м над землей.
Td - Температура точки росы - температура, при понижении до которой содержащийся в воздухе водяной пар достигнет насыщения.
f - Относительная влажность воздуха - влажноcть воздуха, измеренная на высоте 2 м над землей.
Te - Эффективная температура - температура, которую ощущает одетый по сезону человек в тени. Характеристика душности погоды. При расчете учитывается влияние влажности воздуха и скорости ветра на теплоощущения человека.
Tes - Эффективная температура на солнце - температура, которую ощущает человек, с поправкой на солнечный нагрев. Характеристика знойности погоды. Зависит от высоты солнца над горизонтом, облачности и скорости ветра. Ночью, в пасмурную погоду, а также при ветре 12 м/с и более поправка равна нулю.
P - Атмосферное давление - приведенное к уровню моря атмосферное давление.
Po - Атмосферное давление - измеренное на уровне метеостанции атмосферное давление.
Tmin - Минимальная температура - минимум температуры воздуха на высоте 2 м над землей.
Tmax - Максимальная температура - максимум температуры воздуха на высоте 2 м над землей.
R - Количество осадков - Количество выпавших осадков за период времени, мм. При наведении курсора мыши на число - период времени, за который выпало указанное количество осадков.
R24 - Количество осадков - Количество выпавших осадков за 24 часа, мм.
S - Снежный покров - Высота снежного покрова, см. При наведении курсора мыши на число - состояние снежного покрова и степень покрытия местности в баллах.